STARLINK-30895, 58418

Orbit data source: Space-Track

STARLINK-30895, 58418 is a payload satellite owned by SpaceX/Seattle (US) in LEO that was launched on Wed, 22 Nov 2023 UTC via an FALCON 9 launch vehicle from the Air Force Eastern Test Range (AFETR). Payload-class satellites include a variety of spacecraft equipped with specific instruments for various scientific and technological missions. These include communications satellites like Starlink; space stations such as the ISS; scientific satellites like the Hubble; Earth observation satellites from companies like Planet Labs, Umbra, and HawkEye 360; GPS; miniature CubeSats for education and research; and military/defense satellites.

Loading next visibility...
Identifier
58418, 2023-180S
Orbit
LEO
Country
Flag of USUS
Related business
Manufacturer
SpaceX/Seattle
Mission
Operational Commercial Communications
Bus & Motor
STARLINK V2M, Unknown motor
Mass
730 kg wet, ~700 kg dry
Launch date (UTC)
2023-11-22 (3 years ago)
Launch vehicle
FALCON 9
Launch site
Air Force Eastern Test Range (AFETR)
Object type
Payload
Rocket body
Debris
Shape & HBR
Box + 2 Pan, 17.7 m
Radar Cross Section
33.884 m², Large (>1 m²)

Expand to show TLE details & history
Last TLE update: 2 days ago

TLE from 2 days ago
0 STARLINK-30895
1 58418U 23180S   26171.45588360  .00002299  00000-0  92988-4 0  9998
2 58418  43.0033 192.1079 0001637 273.0447  87.0218 15.27603342143236
Epoch: 2026-06-20T10:56Z
TLE epoch observation values (Epoch: 2026-06-20T10:56:28.343Z)
Latitude
0.00004°
Longitude
119.3196°
Altitude
482.697 km
Speed
7.626 km/s
True Right ascension
12h 48m 25s
True Declination
0° 00' 00"
Sunlit
Object was in daylight at epoch
Visualization orbit readout
Latitude
Unknown
Longitude
Unknown
Altitude
Unknown
Speed
Unknown
Apparent Right ascension
Unknown
Apparent Declination
Unknown
Sunlit
N/A
Visualization observer readout
Local Sidereal Time
21:26:13
Azimuth
Unknown
Elevation
Unknown
Doppler factor
Unknown
Orbital elements
Apogee altitude
486.047 km
Perigee altitude
483.8 km
Semi-major axis
6,863.061 km
Eccentricity
0.00016
Inclination
43.0033°
RAAN
192.1079°
Arg. of periapsis
273.0447°
True anomaly
87.04053°
Mean anomaly
87.0218°
Eccentric anomaly
87.03117°
Mean motion
3.81739 °/min
Orbital period
94.31 mins
BSTAR
0.000092988
Loading maneuver chart data...
Computing Atmospheric mass density...
Loading historical data...
Loading historical data...
Loading historical data...
Loading historical data...
Loading historical data...
Loading historical data...
Loading historical data...

Documentation

Showing up to 5 results
|